Volver al catálogo

COSMOS 2180

ActivoMilitarPO
NORAD 21875·PAYLOAD·🇷🇺 Russia

Lanzado Feb 17, 1992 desde Plesetsk Cosmodrome

Loading…

Próximos Pases (próximas 24 horas)

TLE

ActualizadoSource: Space-Track

Época: Sep 14, 2026, 03:05 UTC

1 21875U 92008A   26257.12877259  .00000064  00000-0  51425-4 0  9996
2 21875  82.9300 155.6091 0038939  83.7921  78.9095 13.73969469733037

Sigue COSMOS 2180 en tiempo real con AllMySat

Download on the App Store